Waarnemingen

Advertentie
Mijn weer
Badajoz/Talavera La Real, Spanje (8330): temperatuur & dauwpunt: 15.10.2017 13:00:00 - 21.10.2017 13:00:00 (CEST)Badajoz/Talavera La Real, Spanje (8330): windsnelheid: 15.10.2017 13:00:00 - 21.10.2017 13:00:00 (CEST)Badajoz/Talavera La Real, Spanje (8330): windrichting: 15.10.2017 13:00:00 - 21.10.2017 13:00:00 (CEST)Badajoz/Talavera La Real, Spanje (8330): luchtdruk: 15.10.2017 13:00:00 - 21.10.2017 13:00:00 (CEST)Badajoz/Talavera La Real, Spanje (8330): zicht: 15.10.2017 13:00:00 - 21.10.2017 13:00:00 (CEST)Badajoz/Talavera La Real, Spanje (8330): neerslag: 15.10.2017 13:00:00 - 21.10.2017 13:00:00 (CEST)
Datum & Tijd tt [°C] td [°C] ff [km/u] ff [kn] dd ppp [hPa] vv [km] rr [mm]
21.10.2017 13:00:00 21,7 16,6 13 7 W 1025,3 - 0,0
21.10.2017 12:00:00 21,0 16,8 9 5 W 1025,4 - 0,0
21.10.2017 11:00:00 19,9 16,9 9 5 W 1025,3 10 -
21.10.2017 10:00:00 18,2 17,0 13 7 W 1024,8 - 0,0
21.10.2017 09:00:00 18,1 17,1 5 3 WZW 1024,1 - 0,0
21.10.2017 08:00:00 18,2 17,2 9 5 WNW 1023,7 10 -
21.10.2017 07:00:00 18,6 17,8 5 3 W 1023,3 - 0,0
21.10.2017 06:00:00 18,7 17,9 8 4 W 1022,8 - 0,0
21.10.2017 05:00:00 18,9 18,2 5 3 W 1022,7 - -
21.10.2017 04:00:00 19,2 18,4 5 3 W 1022,9 - 0,0
21.10.2017 03:00:00 19,7 18,9 5 3 W 1022,9 - 0,0
21.10.2017 02:00:00 19,7 18,7 5 3 W 1022,8 - -
21.10.2017 01:00:00 19,4 18,9 4 2 ZW 1022,7 - 0,0
21.10.2017 00:00:00 19,1 18,4 4 2 ZZW 1022,6 - 0,0
20.10.2017 23:00:00 19,5 18,7 4 2 ZZW 1022,3 - -
20.10.2017 22:00:00 20,0 19,0 4 2 ZZW 1022,1 - 0,0
20.10.2017 21:00:00 20,1 19,3 4 2 ZZW 1021,9 - 0,0
20.10.2017 20:00:00 19,9 19,2 4 2 Z 1021,4 15 -
20.10.2017 19:00:00 21,5 18,9 11 6 NW 1020,6 - 0,0
20.10.2017 18:00:00 21,6 18,8 8 4 WNW 1020,4 - 0,0
20.10.2017 17:00:00 21,2 18,9 11 6 WNW 1020,7 10 -
20.10.2017 16:00:00 23,1 16,9 5 3 ZZW 1020,2 - 0,0
20.10.2017 15:00:00 22,7 16,9 2 1 ZW 1020,7 - 0,0
20.10.2017 14:00:00 22,1 17,0 4 2 WZW 1021,3 20 -
20.10.2017 13:00:00 21,1 16,7 5 3 ZZW 1021,6 - 0,0
20.10.2017 12:00:00 20,8 16,8 5 3 ZW 1021,1 - 0,0
20.10.2017 11:00:00 19,3 16,7 5 3 ZZW 1021,0 20 -
20.10.2017 10:00:00 18,3 16,8 5 3 ZZW 1020,5 - 0,0
20.10.2017 09:00:00 17,8 16,7 4 2 ZZW 1019,5 - 0,0
20.10.2017 08:00:00 18,0 16,7 5 3 WZW 1019,0 10 -
20.10.2017 07:00:00 17,9 16,4 4 2 ZZW 1018,6 - 0,0
20.10.2017 06:00:00 17,5 16,0 4 2 ZZW 1018,5 - 0,0
20.10.2017 05:00:00 17,5 15,7 4 2 ZW 1018,4 - -
20.10.2017 04:00:00 18,1 15,5 5 3 W 1018,7 - 0,0
20.10.2017 03:00:00 18,0 15,4 4 2 WZW 1018,6 - 0,0
20.10.2017 02:00:00 17,9 15,3 5 3 WZW 1018,6 - -
20.10.2017 01:00:00 17,4 14,9 4 2 ZW 1018,5 - 0,0
20.10.2017 00:00:00 17,1 14,7 4 2 ZW 1018,6 - 0,0
19.10.2017 23:00:00 16,6 14,2 4 2 ZW 1018,2 - -
19.10.2017 22:00:00 17,1 14,2 5 3 WZW 1017,7 - 0,0
19.10.2017 21:00:00 18,1 14,0 9 5 W 1017,2 - 0,0
19.10.2017 20:00:00 19,3 14,1 9 5 W 1016,5 15 -
19.10.2017 19:00:00 20,2 13,6 18 10 W 1015,8 - 0,0
19.10.2017 18:00:00 21,2 13,1 16 9 WNW 1015,0 - 0,0
19.10.2017 17:00:00 21,4 12,0 16 9 WNW 1014,6 15 -
19.10.2017 16:00:00 22,1 11,2 11 6 W 1014,4 - 0,0
19.10.2017 15:00:00 21,0 9,9 11 6 WNW 1014,9 - 0,0
19.10.2017 14:00:00 20,7 11,6 11 6 W 1015,1 15 -
19.10.2017 13:00:00 19,1 12,4 9 5 WNW 1015,8 - 0,0
19.10.2017 12:00:00 17,6 13,5 4 2 W 1015,2 - 0,0
19.10.2017 11:00:00 15,8 13,5 4 2 N 1014,8 15 -
19.10.2017 10:00:00 14,5 13,4 4 2 NO 1014,1 - 0,0
19.10.2017 09:00:00 13,7 12,8 4 2 ZZO 1013,1 - 0,0
19.10.2017 08:00:00 13,8 12,7 4 2 N 1013,2 10 -
19.10.2017 07:00:00 14,4 12,8 2 1 WZW 1012,7 - 0,0
19.10.2017 06:00:00 13,7 12,1 0 0 N 1012,4 - 0,0
19.10.2017 05:00:00 14,2 12,2 4 2 WNW 1012,1 - -
19.10.2017 04:00:00 14,1 12,0 5 3 W 1012,5 - 0,0
19.10.2017 03:00:00 14,2 11,9 4 2 WZW 1012,8 - 0,0
19.10.2017 02:00:00 14,8 11,9 5 3 WZW 1012,9 - -
19.10.2017 01:00:00 15,4 11,8 5 3 ZW 1013,2 - 0,0
19.10.2017 00:00:00 16,2 12,4 5 3 WZW 1013,5 - 0,0
18.10.2017 23:00:00 16,6 11,9 8 4 WZW 1013,2 - -
18.10.2017 22:00:00 16,9 11,6 8 4 WZW 1013,1 - 0,0
18.10.2017 21:00:00 17,2 11,7 4 2 ZW 1012,4 - 0,0
18.10.2017 20:00:00 18,2 11,0 9 5 WZW 1012,0 30 -
18.10.2017 19:00:00 19,3 11,1 9 5 WZW 1011,6 - 0,0
18.10.2017 18:00:00 19,8 8,8 13 7 W 1011,8 - 0,0
18.10.2017 17:00:00 21,1 9,0 16 9 W 1011,8 30 -
18.10.2017 16:00:00 19,5 9,9 16 9 WNW 1012,0 - 0,0
18.10.2017 15:00:00 21,0 9,9 18 10 W 1012,5 - 0,0
18.10.2017 14:00:00 21,0 12,2 13 7 WZW 1013,1 25 -
18.10.2017 13:00:00 19,8 12,5 11 6 WZW 1013,4 - 0,0
18.10.2017 12:00:00 17,1 14,2 9 5 ZW 1014,0 - -
18.10.2017 11:00:00 - - - - - - 20 -
18.10.2017 10:00:00 14,9 13,8 5 3 ZW 1013,8 - 0,2
18.10.2017 09:00:00 14,5 13,7 5 3 ZW 1013,5 - 0,0
18.10.2017 08:00:00 14,9 13,9 5 3 ZZW 1013,2 15 -
18.10.2017 07:00:00 14,7 13,6 5 3 ZZW 1013,6 - 0,8
18.10.2017 06:00:00 14,4 13,1 4 2 ZZW 1013,8 - 2,0
18.10.2017 05:00:00 15,2 12,7 4 2 WZW 1014,3 - -
18.10.2017 04:00:00 15,7 11,7 8 4 WZW 1015,0 - 0,0
18.10.2017 03:00:00 16,5 11,4 4 2 W 1015,2 - 0,0
18.10.2017 02:00:00 17,2 10,6 4 2 WZW 1015,9 - -
18.10.2017 01:00:00 17,5 9,9 2 1 W 1016,2 - 0,0
18.10.2017 00:00:00 17,6 10,0 4 2 WNW 1016,9 - 0,0
17.10.2017 23:00:00 17,5 11,7 2 1 ZZW 1016,9 - -
17.10.2017 22:00:00 17,9 10,5 2 1 WZW 1016,7 - 0,0
17.10.2017 21:00:00 18,8 10,1 4 2 ZW 1016,6 - 0,0
17.10.2017 20:00:00 20,7 9,3 8 4 WZW 1016,7 12 -
17.10.2017 19:00:00 22,1 9,6 5 3 ZW 1016,9 - 0,0
17.10.2017 18:00:00 23,7 9,7 9 5 WZW 1016,9 - 0,0
17.10.2017 17:00:00 24,0 10,3 9 5 ZW 1017,2 12 -
17.10.2017 16:00:00 23,8 10,5 11 6 WZW 1017,6 - 0,0
17.10.2017 15:00:00 22,8 12,4 11 6 WZW 1018,5 - 0,0
17.10.2017 14:00:00 21,3 13,2 11 6 WZW 1019,6 10 -
17.10.2017 13:00:00 20,4 15,8 8 4 WZW 1019,7 - 0,0
17.10.2017 12:00:00 20,1 16,5 8 4 WZW 1019,6 - 0,0
17.10.2017 11:00:00 19,3 17,1 8 4 ZZW 1019,9 10 -
17.10.2017 10:00:00 18,7 17,0 8 4 Z 1019,2 - 0,0
17.10.2017 09:00:00 18,4 16,6 11 6 Z 1018,7 - 0,0
17.10.2017 08:00:00 18,4 16,7 11 6 Z 1018,5 10 -
17.10.2017 07:00:00 18,9 16,5 15 8 ZZO 1017,9 - 2,0
17.10.2017 06:00:00 20,8 15,1 11 6 Z 1018,3 - 0,0
17.10.2017 05:00:00 20,1 14,5 4 2 WZW 1018,5 - -
17.10.2017 04:00:00 20,7 14,3 8 4 W 1019,0 - 0,0
17.10.2017 03:00:00 22,1 13,4 4 2 ZW 1019,1 - 0,0
17.10.2017 02:00:00 22,5 13,3 8 4 Z 1019,3 - -
17.10.2017 01:00:00 22,1 13,2 5 3 Z 1019,8 - 0,0
17.10.2017 00:00:00 21,1 12,5 2 1 ZW 1020,1 - 0,0
16.10.2017 23:00:00 22,1 12,1 2 1 Z 1019,9 - -
16.10.2017 22:00:00 22,4 10,5 5 3 ZO 1019,7 - 0,0
16.10.2017 21:00:00 22,7 11,1 4 2 OZO 1019,7 - 0,0
16.10.2017 20:00:00 23,8 10,8 5 3 WNW 1019,7 15 -
16.10.2017 19:00:00 24,8 10,6 8 4 WNW 1019,8 - 0,0
16.10.2017 18:00:00 25,9 8,4 11 6 WNW 1019,7 - 0,0
16.10.2017 17:00:00 26,8 7,8 4 2 WNW 1019,6 15 -
16.10.2017 16:00:00 26,9 7,9 8 4 W 1020,0 - 0,0
16.10.2017 15:00:00 27,5 8,4 11 6 W 1020,6 - 0,0
16.10.2017 14:00:00 26,7 8,6 11 6 WNW 1021,3 15 -
16.10.2017 13:00:00 26,0 9,3 8 4 NNW 1021,6 - 0,0
16.10.2017 12:00:00 24,6 8,1 8 4 O 1021,8 - 0,0
16.10.2017 11:00:00 21,6 7,0 15 8 O 1021,9 15 -
16.10.2017 10:00:00 17,1 5,7 8 4 O 1022,2 - 0,0
16.10.2017 09:00:00 13,3 5,2 5 3 OZO 1021,7 - 0,0
16.10.2017 08:00:00 14,3 5,1 4 2 ZO 1021,2 15 -
16.10.2017 07:00:00 14,3 6,1 2 1 WZW 1020,9 - 0,0
16.10.2017 06:00:00 14,6 6,2 4 2 OZO 1020,5 - 0,0
16.10.2017 05:00:00 16,0 5,0 5 3 OZO 1020,2 - -
16.10.2017 04:00:00 16,4 5,9 5 3 Z 1020,5 - 0,0
16.10.2017 03:00:00 17,1 5,7 4 2 O 1020,2 - 0,0
16.10.2017 02:00:00 18,1 5,6 4 2 W 1020,2 - -
16.10.2017 01:00:00 19,6 5,3 9 5 OZO 1019,5 - 0,0
16.10.2017 00:00:00 24,1 4,9 8 4 ZZO 1019,2 - 0,0
15.10.2017 23:00:00 24,8 4,5 8 4 ZZO 1018,9 - -
15.10.2017 22:00:00 26,1 4,5 8 4 Z 1018,5 - 0,0
15.10.2017 21:00:00 28,2 4,5 9 5 Z 1017,9 - 0,0
15.10.2017 20:00:00 30,6 5,1 9 5 Z 1017,3 10 -
15.10.2017 19:00:00 32,8 5,4 13 7 Z 1017,0 - 0,0
15.10.2017 18:00:00 34,4 4,9 16 9 ZZO 1016,8 - 0,0
15.10.2017 17:00:00 35,1 5,5 16 9 ZZO 1016,9 12 -
15.10.2017 16:00:00 35,2 6,5 16 9 Z 1017,3 - 0,0
15.10.2017 15:00:00 35,2 8,1 15 8 ZZO 1017,6 - 0,0
15.10.2017 14:00:00 32,9 8,4 9 5 NO 1019,5 - -
15.10.2017 13:00:00 31,7 8,0 13 7 O 1020,4 - 0,0

tt = temperatuur
td = dauwpunt
ff = windsnelheid
dd = windrichting
ppp = luchtdruk
vv = zicht
rr = neerslag

Weerstations in de omgeving